Regional Weather Roundup
Issued by NWS

Home | Current Version | Previous Version | Graphics & Text | Print | Product List | Glossary On
Versions: 1 2 3 4 5 6 7 8 9 10 11 12 13 14 15 16 17 18 19 20 21 22 23 24 25 26 27 28 29 30 31 32 33 34 35 36 37 38 39 40 41 42 43 44 45 46 47 48 49 50
000
ASUS43 KBIS 070710
RWRND

NORTH DAKOTA REGIONAL WEATHER ROUNDUP
NATIONAL WEATHER SERVICE BISMARCK ND
100 AM CST SUN FEB 07 2016

NOTE: "FAIR" INDICATES FEW OR NO CLOUDS BELOW 12,000 FEET WITH NO
SIGNIFICANT WEATHER AND/OR OBSTRUCTIONS TO VISIBILITY.


NDZ001>003-009>011-017-070800-
NORTHWEST NORTH DAKOTA

CITY           SKY/WX    TMP DP  RH WIND       PRES   REMARKS
WILLISTON      CLEAR     35  24  64 W23G29    29.82S
MINOT          MOCLDY    39  21  48 W24G31    29.67R
MINOT AFB      PTCLDY    37  24  58 W24G30    29.64R
$$

NDZ018>021-031>035-040>046-070800-
SOUTHWEST NORTH DAKOTA

CITY           SKY/WX    TMP DP  RH WIND       PRES   REMARKS
BISMARCK       PTCLDY    40  23  50 W22G31    29.79R
DICKINSON      CLEAR     33  24  69 W24G35    29.85R
GARRISON         N/A     35  23  61 W20       29.73R
HETTINGER ARPT CLEAR     34  23  64 W25G33    29.92R
$$

NDZ004>008-012>016-024-026-027-054-070800-
NORTHEAST NORTH DAKOTA

CITY           SKY/WX    TMP DP  RH WIND       PRES   REMARKS
GRAND FORKS    CLOUDY    37  32  82 W21       29.47R
GRND FRKS AFB  CLOUDY    37  32  81 W22G32    29.47S
DEVILS LAKE    LGT RAIN  35  30  82 W33G43    29.51S
$$

NDZ022-023-025-028>030-036>039-047>053-070800-
SOUTHEAST NORTH DAKOTA

CITY           SKY/WX    TMP DP  RH WIND       PRES   REMARKS
FARGO          CLOUDY    38  32  79 W22G30    29.55S
JAMESTOWN      CLOUDY    37  27  67 W25G37    29.61R
$$




USA.gov is the U.S. government's official web portal to all federal, state and local government web resources and services.